www.pogodaiklimat.ru

Погода и климат >> Архив погоды >> Парагвай >> Коронель-Овьедо


ПОГОДА в Коронель-Овьедо

  • Прогноз погоды в Коронель-Овьедо
  • Монитор погоды в Коронель-Овьедо

АРХИВ ПОГОДЫ в Коронель-Овьедо

Время (UTC), дата Ветер
(напр.,м/с)
 
Видим.   Явления Облачность Т
(С)
Тd
(С)
f
(%)
Тe
(С)
Тes
(С)
Комфортность P
(гПа)
Po
(гПа)
Тmin
(С)
Tmax
(С)
R
(мм)
R24
(мм)
S
(см)
00 20.03 ЮЗ 1 20 км 8/0 2000 м
[Ac As]
+25.4 +20.8 76 +32 +32 очень
душно
1009.9 991.6 +31.7
03 20.03 Ю 1 20 км 8/0
[Ac cast]
+25.0 +22.1 84 +32 +32 очень
душно
1010.3 992.0
06 20.03 ЮЗ 1 20 км 10/5 450 м
[Sc Ac As]
+24.2 +22.5 90 +32 +32 очень
душно
1010.3 992.0
09 20.03 ЮЗ 2 15 км слаб. дождь 10/10 300 м
[Sc]
+22.0 +20.7 92 +28 +28 душно 1009.6 991.2 0.4
12 20.03 штиль 0 20 км {дождь} 10/8 300 м
[Sc Ac As]
+22.2 +21.7 97 +29 +30 очень
душно
1012.9 994.5 +20.8 0.4
15 20.03 Ю 2 20 км 10/5 450 м
[Sc Ac As]
+23.4 +19.9 81 +30 +33 очень
душно
1014.2 995.7
18 20.03 Ю 3 20 км 9/5 800 м
[Sc Ac As]
+26.6 +21.1 72 +34 +36 очень
душно
1013.7 995.5
21 20.03 Ю 3 20 км 8/4 900 м
[Sc Ac As]
+25.2 +21.3 79 +32 +32 очень
душно
1012.8 994.5
00 21.03 Ю 2 20 км 6/0 600 м
[Ac As]
+23.6 +20.9 85 +30 +30 очень
душно
1013.6 995.2 +26.6
03 21.03 ЮЗ 2 20 км 6/0 2000 м
[Ac lent]
+21.2 +17.6 80 +25 +25 комфорт 1015.6 997.0
06 21.03 ЮЗ 2 20 км 8/0 2000 м
[Ac As]
+19.4 +18.1 92 +22 +22 комфорт 1015.7 997.0
09 21.03 Ю 2 20 км 3/0
[Ci fib]
+17.6 +16.6 94 +18 +18 1015.7 996.9
12 21.03 Ю 4 20 км 3/0
[Ac cast]
+18.4 +15.8 85 +19 +22 1017.7 998.9 +16.5
15 21.03 ЮЗ 2 20 км 3/1 1200 м
[Cu hum Ci fib]
+23.4 +18.1 72 +29 +44 душно 1018.1 999.6
21 21.03 Ю 2 20 км 3/3 1200 м
[Cu hum]
+26.8 +19.4 64 +32 +33 очень
душно
1016.8 996.4
00 22.03 ЮЗ 2 20 км 3/0
[Ac cast]
+21.6 +17.1 76 +26 +26 душно 1014.6 996.1 +26.9
03 22.03 ЮЗ 2 20 км ясно +18.8 +14.1 74 +21 +21 комфорт 1015.0 996.3
06 22.03 ЮЗ 1 20 км 5/0
[Ac trans]
+18.2 +14.7 80 +20 +20 1014.7 995.9
09 22.03 ЮЗ 1 20 км 6/0
[Ac und]
+17.4 +15.0 86 +18 +18 1014.5 995.6
12 22.03 Ю 1 20 км 3/0
[Ac cast]
+18.0 +14.5 80 +19 +24 1017.7 998.9 +15.5
15 22.03 Ю 1 20 км 3/3 1200 м
[Cu hum]
+25.6 +14.2 49 +28 +42 жарко 1017.6 999.3
18 22.03 ЮЗ 1 20 км 3/3 1200 м
[Cu hum]
+28.6 +14.5 42 +31 +41 жарко 1015.3 997.2
21 22.03 ЮЗ 1 20 км 3/3 1200 м
[Cu med, cong]
+28.8 +14.3 41 +31 +31 жарко 1014.6 996.5
00 23.03 ЮЗ 1 20 км 3/0
[Ac cast]
+23.4 +20.0 81 +30 +30 очень
душно
1014.8 996.3 +28.9
03 23.03 ЮЗ 1 20 км 3/0
[Ac cast]
+19.8 +16.6 82 +23 +23 комфорт 1016.3 997.6
06 23.03 ЮЗ 1 20 км 4/0
[Ac trans]
+17.8 +16.6 93 +19 +19 1015.8 997.0
09 23.03 ЮЗ 1 20 км 5/0
[Ac cast]
+26.8 +15.4 50 +30 +30 душно 1015.4 996.5
12 23.03 ЮЗ 1 20 км 3/0
[Ac cast]
+19.0 +17.2 89 +22 +26 комфорт 1018.2 999.8 +16.8
15 23.03 штиль 0 20 км 4/4 1200 м
[Cu hum]
+27.2 +20.7 68 +34 +48 очень
душно
1016.5 998.3
18 23.03 ЮЗ 1 20 км 6/6 900 м
[Cu Sc]
+29.8 +19.5 54 +36 +41 очень
душно
1014.5 996.5
21 23.03 СЗ 1 20 км 4/3 1200 м
[Cu med, cong Ci ing]
+30.6 +20.6 55 +38 +38 очень
душно
1013.2 995.2
00 24.03 ЮЗ 1 20 км 3/0
[Ac cast]
+25.4 +20.3 73 +31 +31 очень
душно
1013.4 995.1 +31.0
03 24.03 штиль 0 20 км 4/0
[Ac cast]
+20.8 +19.4 92 +25 +25 комфорт 1014.5 995.9
09 24.03 ЮЗ 1 20 км 6/0 2000 м
[Ac As]
+19.4 +18.5 95 +23 +23 комфорт 1015.0 996.3
12 24.03 ЮЗ 1 20 км 3/0
[Ac cast]
+22.8 +20.2 85 +29 +34 очень
душно
1016.5 998.0 +19.0
15 24.03 Ю 1 20 км 6/6 900 м
[Cu Sc]
+30.0 +19.7 54 +36 +44 очень
душно
1016.8 998.9
18 24.03 СЗ 1 20 км 6/5 900 м
[Cu Sc Ci ing]
+31.8 +20.5 51 +39 +45 очень
душно
1014.9 997.0
21 24.03 Ю 1 20 км 5/1 1200 м
[Cu hum Ac cuf Ci fib]
+30.8 +20.4 54 +38 +38 очень
душно
1013.8 995.8
00 25.03 Ю 2 20 км ясно +26.6 +19.3 64 +32 +32 очень
душно
1014.0 995.8 +32.0
03 25.03 ЮЗ 2 20 км 3/0
[Ac cast]
+23.4 +18.2 73 +29 +29 душно 1014.8 996.2
06 25.03 Ю 1 20 км 4/0
[Ac cast]
+20.8 +16.1 74 +25 +25 комфорт 1014.8 996.2
09 25.03 Ю 1 20 км 1/0
[Ci fib]
+17.8 +16.7 93 +19 +19 1015.2 996.4
12 25.03 Ю 1 20 км 1/0
[Ac lent]
+22.2 +18.7 81 +28 +33 душно 1017.2 998.7 +17.6
15 25.03 Ю 2 20 км 3/0
[Cc]
+27.6 +17.2 53 +32 +48 очень
душно
1016.4 998.2
18 25.03 Ю 1 20 км 4/3 1200 м
[Cu hum Cs]
+29.2 +18.8 54 +35 +44 очень
душно
1014.6 996.5
21 25.03 Ю 1 20 км 5/1 1200 м
[Cu hum Cs]
+29.0 +18.8 54 +34 +35 очень
душно
1013.2 995.2
00 26.03 Ю 1 20 км 4/0
[Ci]
+23.6 +16.2 63 +27 +27 жарко 1014.7 996.3 +30.0
03 26.03 Ю 2 20 км 4/0
[Ac cast]
+21.8 +17.2 75 +26 +26 душно 1015.2 996.7
06 26.03 Ю 1 20 км 3/0
[Ac cast]
+18.8 +13.9 73 +21 +21 комфорт 1015.4 996.7
09 26.03 Ю 2 20 км 5/0
[Ac cast]
+18.6 +12.4 67 +20 +20 1015.4 996.7
12 26.03 Ю 2 20 км 6/0
[Ac trans]
+19.0 +11.9 63 +20 +24 1017.2 999.0 +17.4
15 26.03 Ю 2 20 км 3/0
[Ac lent]
+25.8 +7.7 32 +26 +38 жарко 1018.1 999.8
18 26.03 Ю 2 20 км 4/0
[Ac cuf]
+25.8 +7.7 32 +26 +36 жарко 1016.9 998.7

 

Местоположение метеостанции Коронель-Овьедо (Парагвай): широта -25.45 долгота -56.36 высота над уровнем моря 163 м.

В архиве по умолчанию представлена погода в Коронель-Овьедо за последнюю неделю. Архивные данные за месяц целиком и за предыдущие месяцы, начиная с января 2011 года, Вы можете получить, выбрав интересующий диапазон дат из раскрывающегося списка и нажав кнопку "Ввод!".


*Определитесь, кто Вы:
робот инопланетянин человек

Внимание! Время в таблицах - всемирное. Для получения местного времени необходимо прибавить поправку, которая равна -4 ч.

Смотрите также архив погоды в соседних городах и на ближайших метеорологических станциях:

Погода в Вильяррике (Парагвай) (34 км)
Погода в Парагуари (Парагвай) (80 км)
Погода в Каасапе (Парагвай) (81 км)
Погода в Сан Эстанислао (Парагвай) (89 км)
Погода в Куйкуйо (Парагвай) (106 км)
Погода в Асунсьоне (Парагвай) (118 км)
Погода в Аэропорту Гуарани (Парагвай) (152 км)
Погода в Сан Хуан Батистута (Парагвай) (156 км)
Погода в Сан-Педро (Парагвай) (171 км)
Погода в Фос-ду-Игуасу (Парана, Бразилия) (179 км)

Пояснения к столбцам:

Ветер - указаны скорость ветра в м/с - средняя за 10 мин, порывы в срок и между сроками (в фигурных скобках) и направление, откуда дует ветер: С - северный, СВ - северо-восточный, В - восточный, ЮВ - юго-восточный, Ю - южный, ЮЗ - юго-западный, З - западный, СЗ - северо-западный.
Видимость - горизонтальная дальность видимости в метрах или километрах. При видимости от 1 до 10 км при отсутствии осадков обычно наблюдается дымка, при ухудшении видимости до 1 км и менее - туман. В сухую погоду видимость может ухудшаться дымом, пылью или мглою.
Явления - указаны атмосферные явления, наблюдавшиеся в срок или в последний час перед сроком; фигурными скобками обозначены явления, наблюдавшиеся между сроками (за 1-3 часа до срока); квадратными скобками обозначены град или гололедные отложения с указанием их диаметра в мм.
Облачность - указаны через наклонную черту общая и нижняя облачность в баллах и высота нижней границы облаков в метрах; квадратными скобками обозначены формы облаков: Ci - перистые, Cs - перисто-слоистые, Cc - перисто-кучевые, Ac - высококучевые, As - высокослоистые, Sc - слоисто-кучевые, Ns - слоисто-дождевые, Cu - кучевые, Cb - кучево-дождевые. Подробнее классификацию облаков см. в Атласе облаков (PDF).
T - Температура воздуха - температура, измеренная на высоте 2 м над землей.
Td - Температура точки росы - температура, при понижении до которой содержащийся в воздухе водяной пар достигнет насыщения.
f - Относительная влажность воздуха - влажноcть воздуха, измеренная на высоте 2 м над землей.
Te - Эффективная температура - температура, которую ощущает одетый по сезону человек в тени. Характеристика душности погоды. При расчете учитывается влияние влажности воздуха и скорости ветра на теплоощущения человека.
Tes - Эффективная температура на солнце - температура, которую ощущает человек, с поправкой на солнечный нагрев. Характеристика знойности погоды. Зависит от высоты солнца над горизонтом, облачности и скорости ветра. Ночью, в пасмурную погоду, а также при ветре 12 м/с и более поправка равна нулю.
P - Атмосферное давление - приведенное к уровню моря атмосферное давление.
Po - Атмосферное давление - измеренное на уровне метеостанции атмосферное давление.
Tmin - Минимальная температура - минимум температуры воздуха на высоте 2 м над землей.
Tmax - Максимальная температура - максимум температуры воздуха на высоте 2 м над землей.
R - Количество осадков - Количество выпавших осадков за период времени, мм. При наведении курсора мыши на число - период времени, за который выпало указанное количество осадков.
R24 - Количество осадков - Количество выпавших осадков за 24 часа, мм.
S - Снежный покров - Высота снежного покрова, см. При наведении курсора мыши на число - состояние снежного покрова и степень покрытия местности в баллах.